BAW215 EGLL-EDDF

Flight info

Callsign BAW215
Flight time N/A
Altitude 35000
Route BPK6J BPK Q295 MATCH DCT REDFA DCT TACHA DCT NOLRU DCT DIXAT DIXAT1A
Aircraft A21N/M-SDE2E3FGHIRWXY/LB1

Departure

Time 2026-05-06 23:04
Airport London Heathrow Airport (EGLL)

Arrival

Time N/A
Airport Frankfurt Main Airport (EDDF)
Time Latitude Longitude Altitude Speed Heading
2026-05-06 22:46 51.47144 -0.47513 93 ft 0 kts 269°
2026-05-06 22:56 51.47144 -0.47512 91 ft 2 kts 269°
2026-05-06 22:56 51.47144 -0.47481 90 ft 3 kts 269°
2026-05-06 22:56 51.47144 -0.47449 88 ft 3 kts 269°
2026-05-06 22:57 51.47145 -0.47418 88 ft 3 kts 267°
2026-05-06 22:57 51.47148 -0.47386 90 ft 3 kts 232°
2026-05-06 22:57 51.47162 -0.47363 88 ft 3 kts 198°
2026-05-06 22:57 51.47172 -0.47357 89 ft 0 kts 181°
2026-05-06 22:59 51.47164 -0.47357 90 ft 5 kts 179°
2026-05-06 23:00 51.47115 -0.47354 87 ft 11 kts 178°
2026-05-06 23:00 51.46979 -0.47352 86 ft 19 kts 180°
2026-05-06 23:00 51.46805 -0.47350 83 ft 26 kts 179°
2026-05-06 23:00 51.46672 -0.47371 85 ft 12 kts 224°
2026-05-06 23:01 51.46656 -0.47654 81 ft 30 kts 269°
2026-05-06 23:01 51.46653 -0.48003 84 ft 32 kts 271°
2026-05-06 23:01 51.46653 -0.48347 88 ft 32 kts 270°
2026-05-06 23:01 51.46651 -0.48687 87 ft 27 kts 263°
2026-05-06 23:02 51.46594 -0.48770 87 ft 0 kts 195°
2026-05-06 23:02 51.46574 -0.48779 85 ft 12 kts 194°
2026-05-06 23:02 51.46481 -0.48714 88 ft 20 kts 113°
2026-05-06 23:02 51.46477 -0.48600 86 ft 0 kts 85°
2026-05-06 23:03 51.46480 -0.48407 87 ft 49 kts 89°
2026-05-06 23:03 51.46482 -0.47488 81 ft 115 kts 89°
2026-05-06 23:03 51.46487 -0.45877 91 ft 173 kts 89°
2026-05-06 23:04 51.46508 -0.43754 458 ft 205 kts 88°
2026-05-06 23:04 51.46645 -0.41414 1342 ft 210 kts 66°
2026-05-06 23:04 51.47450 -0.39655 2621 ft 187 kts 42°
2026-05-06 23:04 51.48430 -0.38301 3540 ft 193 kts 40°
2026-05-06 23:05 51.49495 -0.36813 4212 ft 213 kts 43°
2026-05-06 23:05 51.50580 -0.35003 4907 ft 235 kts 52°
2026-05-06 23:05 51.51479 -0.32714 5792 ft 250 kts 60°
2026-05-06 23:05 51.52254 -0.30125 6686 ft 264 kts 65°
2026-05-06 23:06 51.52950 -0.27346 7685 ft 271 kts 67°
2026-05-06 23:06 51.53599 -0.24461 8738 ft 277 kts 66°
2026-05-06 23:06 51.54635 -0.21876 9754 ft 278 kts 41°
2026-05-06 23:06 51.56165 -0.19997 10537 ft 288 kts 26°
2026-05-06 23:07 51.58060 -0.18656 11079 ft 308 kts 18°
2026-05-06 23:07 51.60157 -0.17538 11658 ft 327 kts 15°
2026-05-06 23:07 51.62399 -0.16497 12292 ft 344 kts 14°
2026-05-06 23:07 51.64757 -0.15463 12968 ft 359 kts 13°
2026-05-06 23:08 51.67224 -0.14390 13672 ft 374 kts 13°
2026-05-06 23:08 51.69774 -0.13258 14347 ft 386 kts 14°
2026-05-06 23:08 51.72339 -0.11868 15209 ft 394 kts 24°
2026-05-06 23:08 51.74572 -0.09352 16017 ft 403 kts 43°
2026-05-06 23:09 51.76272 -0.05716 16855 ft 411 kts 61°
2026-05-06 23:09 51.77226 -0.01333 17686 ft 418 kts 79°
2026-05-06 23:09 51.77444 0.03376 18485 ft 423 kts 89°
2026-05-06 23:09 51.77427 0.08153 19220 ft 428 kts 91°
2026-05-06 23:10 51.77394 0.12981 19941 ft 433 kts 90°
2026-05-06 23:10 51.77480 0.17859 20668 ft 437 kts 86°
2026-05-06 23:10 51.77884 0.22745 21363 ft 441 kts 79°
2026-05-06 23:10 51.78519 0.27548 22061 ft 446 kts 77°
2026-05-06 23:11 51.79249 0.32441 22734 ft 450 kts 76°
2026-05-06 23:11 51.80024 0.37368 23410 ft 455 kts 75°
2026-05-06 23:11 51.80823 0.42341 24000 ft 459 kts 75°
2026-05-06 23:11 51.81634 0.47345 24582 ft 462 kts 75°
2026-05-06 23:12 51.82453 0.52398 25127 ft 466 kts 75°
2026-05-06 23:12 51.83274 0.57490 25697 ft 470 kts 76°
2026-05-06 23:12 51.84095 0.62622 26245 ft 473 kts 76°
2026-05-06 23:12 51.84918 0.67789 26865 ft 475 kts 76°
2026-05-06 23:13 51.85722 0.72879 27616 ft 473 kts 76°
2026-05-06 23:13 51.86531 0.78022 28376 ft 471 kts 77°
2026-05-06 23:13 51.87332 0.83147 29125 ft 469 kts 77°
2026-05-06 23:13 51.88127 0.88264 29858 ft 468 kts 77°
2026-05-06 23:14 51.88915 0.93362 30488 ft 467 kts 77°
2026-05-06 23:14 51.89699 0.98452 31096 ft 465 kts 77°
2026-05-06 23:14 51.90475 1.03518 31695 ft 463 kts 78°
2026-05-06 23:14 51.91246 1.08571 32261 ft 462 kts 78°
2026-05-06 23:15 51.92001 1.13549 32811 ft 461 kts 78°
2026-05-06 23:15 51.92762 1.18582 33339 ft 459 kts 78°
2026-05-06 23:15 51.93518 1.23605 33878 ft 458 kts 78°
2026-05-06 23:15 51.94270 1.28621 34316 ft 458 kts 78°
2026-05-06 23:16 51.95016 1.33644 34665 ft 459 kts 78°
2026-05-06 23:16 51.95763 1.38697 34868 ft 464 kts 78°
2026-05-06 23:16 51.96518 1.43819 34956 ft 471 kts 78°
2026-05-06 23:17 51.98065 1.54350 35013 ft 489 kts 78°
2026-05-06 23:17 51.99639 1.65081 35019 ft 480 kts 78°
2026-05-06 23:17 52.00395 1.70227 35018 ft 459 kts 78°
2026-05-06 23:18 52.01123 1.75208 35023 ft 450 kts 78°
2026-05-06 23:18 52.02566 1.85232 35025 ft 465 kts 78°
2026-05-06 23:19 52.04008 1.95266 35028 ft 449 kts 79°